TIME,DELAY(SENSOR),PRES,OXYGEN,RAWTEMP,T(OPTODE),TCPHASE,FLUOR,BETA(BETA700),BETA(BETA412),BETA(BETA440),CDOM,C(CSC),ED(ED412.40),ED(ED444.00),ED(ED489.70),ED(ED554.30),LU(LU411.80),LU(LU443.40),LU(LU489.60),LU(LU554.10),COMP,TILTX,TILTY,CHECK
1369540297,5809,796.3599853515625000,40.7802314758300800,656.1245727539062000,4.7554740905761720,54.8359794616699200,53,100,86,79,78,14866,2147752987,2147423296,2148005961,2147876498,2147640493,2147054884,2148254381,2147196123,802,4,13,742
1369543893,5810,839.3499755859375000,46.0053710937500000,660.8032226562500000,4.6015281677246090,54.1186218261718750,52,99,82,79,79,14866,2147751716,2147425508,2148005458,2147874916,2147639442,2147059382,2148260342,2147195328,3479,4,13,1918
1369547493,5809,846.5000000000000000,45.4586105346679700,660.7874755859375000,4.6020431518554690,54.1980400085449200,53,102,83,79,80,14867,2147754349,2147421696,2148007314,2147874953,2147640283,2147055213,2148254966,2147191954,2962,4,13,58429
1369551093,5810,870.2700195312500000,47.3088989257812500,663.2247924804688000,4.5217490196228030,53.9642105102539060,52,100,83,79,80,14864,2147753444,2147423616,2148011291,2147872356,2147640941,2147054134,2148253632,2147194587,76,4,13,18308
1369554693,5806,874.6099853515625000,47.4393196105957000,663.7160034179688000,4.5055580139160160,53.9543418884277340,53,99,84,78,79,14870,2147752941,2147422235,2148009060,2147875291,2147639862,2147060425,2148254729,2147194806,3591,4,13,46611
1369558293,5811,875.8599853515625000,46.9205703735351560,664.6079101562500000,4.4761538505554200,54.0368499755859400,52,99,85,77,80,14867,2147752347,2147426258,2148011373,2147874532,2147640576,2147056822,2148257051,2147197312,412,4,13,15662
1369561893,5807,901.8800048828125000,47.5589904785156250,667.1256713867188000,4.3930988311767580,53.9769096374511700,53,99,86,78,80,14866,2147752978,2147426870,2148011931,2147875474,2147642578,2147062491,2148253714,2147194651,3565,4,13,64431
1369565493,5808,903.9600219726562000,47.3312988281250000,667.2858886718750000,4.3878121376037600,54.0128593444824200,53,98,85,79,79,14866,2147751606,2147425307,2148008146,2147874669,2147642450,2147058477,2148254893,2147195254,3489,4,13,59450
1369569093,5811,902.1500244140625000,47.1829795837402340,668.6995849609375000,4.3411459922790530,54.0494194030761700,52,99,84,78,80,14866,2147754331,2147423232,2148010340,2147877156,2147638610,2147057024,2148255350,2147199542,3534,4,13,61642
1369572693,5808,927.5399780273438000,47.1226196289062500,670.5352172851562000,4.2805161476135250,54.0812416076660160,52,97,87,78,81,14866,2147758491,2147426203,2148011501,2147873225,2147642806,2147055222,2148256749,2147195602,3382,4,13,18200
1369576293,5809,931.3300170898438000,47.1081886291503900,670.5214843750000000,4.2809700965881350,54.0807800292968750,52,99,89,79,80,14861,2147755346,2147421696,2148010102,2147874313,2147640484,2147051145,2148255945,2147196169,3439,4,13,22819
1369579893,5808,937.4000244140625000,47.1227607727050800,668.7053222656250000,4.3409581184387210,54.0589790344238300,53,100,83,78,81,14862,2147758253,2147425526,2148010898,2147876050,2147642596,2147055561,2148261248,2147200722,78,4,13,40581
1369583493,5807,962.3400268554688000,47.7652511596679700,672.2299194335938000,4.2245078086853030,54.0082511901855500,52,97,85,79,79,14864,2147754797,2147423067,2148011474,2147875291,2147646473,2147051849,2148264676,2147196617,257,4,13,49580
1369587093,5807,959.7700195312500000,48.7424888610839840,674.0170288085938000,4.1654090881347660,53.8953399658203100,52,101,87,80,80,14862,2147757284,2147423085,2148009170,2147874450,2147645531,2147058029,2148262153,2147197293,24,4,13,62933
1369590693,5807,966.7800292968750000,48.7643089294433600,673.1749877929688000,4.1932578086853030,53.8852806091308600,52,98,86,78,81,14861,2147755126,2147420379,2148008164,2147875748,2147642011,2147056000,2148256731,2147197248,110,4,13,33069
1369594293,5809,989.8300170898438000,49.1809806823730500,675.3284912109375000,4.1220169067382810,53.8476104736328100,52,97,86,78,80,14865,2147758747,2147423186,2148008000,2147873353,2147642925,2147053668,2148256960,2147197174,65,4,13,19599
1369597893,5809,988.5700073242188000,49.4418601989746100,675.0994873046875000,4.1295948028564450,53.8073883056640600,51,97,85,78,78,14859,2147759606,2147427035,2148008109,2147873453,2147642861,2147055168,2148261202,2147195593,150,4,13,14142
1369601493,5808,992.1199951171875000,49.8249206542968750,675.5106201171875000,4.1159901618957520,53.7629508972168000,53,99,87,80,80,14862,2147753334,2147425965,2148008045,2147870948,2147641856,2147052708,2148253878,2147194486,407,4,13,46567
1369605093,5806,994.8900146484375000,49.5960998535156250,676.0012207031250000,4.0997490882873535,53.8046989440918000,52,99,89,79,80,14858,2147755364,2147424082,2148008448,2147876580,2147644214,2147056530,2148259858,2147198326,434,4,13,43414
1369608693,5810,990.5200195312500000,49.6047210693359400,675.4168701171875000,4.1190891265869140,53.7950782775878900,52,99,86,78,80,14860,2147756726,2147424612,2148009051,2147875684,2147641280,2147051035,2148257782,2147197229,279,4,13,45989
1369612293,5808,992.0200195312500000,49.9451789855957000,676.5687866210938000,4.0809612274169920,53.7587394714355500,52,98,87,79,80,14858,2147754267,2147424768,2148014016,2147871661,2147642514,2147052571,2148260205,2147194395,118,4,13,62408
1369615893,5809,986.3800048828125000,49.8473281860351560,676.8372802734375000,4.0720691680908200,53.7787590026855500,53,96,86,79,80,14856,2147758162,2147423104,2148010797,2147871872,2147641517,2147049261,2148260809,2147200850,3587,4,13,52469
1369619493,5807,1000.8200073242188000,49.8121490478515600,675.2849121093750000,4.1234607696533200,53.7634506225585940,53,99,87,78,80,14853,2147756580,2147424969,2148008210,2147873892,2147641892,2147056182,2148259364,2147196708,680,4,13,59998
1369623093,5807,996.9099731445312000,48.8863105773925800,674.4315185546875000,4.1516971588134770,53.8801002502441400,51,96,87,78,80,14853,2147755721,2147425024,2148007040,2147872475,2147644489,2147054244,2148261028,2147194139,3567,4,13,41671
1369626693,5809,994.7100219726562000,48.7186203002929700,675.2034301757812000,4.1261539459228520,53.9128303527832000,53,100,88,78,80,14848,2147757001,2147424310,2148008822,2147872356,2147644160,2147048228,2148254436,2147194304,3153,4,13,27289
1369630293,5809,1000.3200073242188000,49.4384994506835940,674.7622070312500000,4.1407551765441895,53.8102989196777340,52,97,88,79,80,14849,2147756251,2147424045,2148007780,2147875200,2147644726,2147051428,2148262445,2147196608,3201,4,13,16938
1369633893,5811,998.3900146484375000,48.3401985168457000,674.4445800781250000,4.1512618064880370,53.9577217102050800,53,99,86,78,80,14851,2147756406,2147424667,2148010358,2147876397,2147645220,2147056228,2148253302,2147195465,3519,4,13,62006
1369637493,5809,995.2899780273438000,48.5046081542968750,674.8754882812500000,4.1370048522949220,53.9423408508300800,52,98,90,80,80,14851,2147757915,2147426249,2148008493,2147870326,2147644480,2147054381,2148259373,2147195501,3286,4,13,39248
1369641093,5809,996.5999755859375000,49.5431098937988300,675.0474243164062000,4.1313190460205080,53.7983512878418000,52,97,83,79,80,14847,2147757650,2147421979,2148008877,2147873435,2147644141,2147054034,2148259867,2147196013,3497,4,13,34216
1369644693,5812,989.5900268554688000,49.1594009399414060,676.0260009765625000,4.0989279747009280,53.8647918701171900,53,99,84,78,80,14846,2147756946,2147425462,2148011885,2147875017,2147640996,2147056740,2148254198,2147195072,81,4,13,41098
1369648293,5811,991.2999877929688000,50.0914611816406250,677.0048828125000000,4.0665187835693360,53.7491912841796900,52,101,88,78,79,14671,2147755373,2147421888,2148008128,2147874642,2147641060,2147050285,2148254482,2147193737,62,4,13,48481
1369651893,5806,997.8900146484375000,50.5016288757324200,676.4678955078125000,4.0843009948730470,53.6806411743164060,52,97,86,79,80,14668,2147756443,2147425234,2148011702,2147876077,2147644388,2147054308,2148256640,2147196662,224,4,13,16065
1369655493,5807,999.6300048828125000,49.5166702270507800,675.1826171875000000,4.1268439292907715,53.8046417236328100,52,98,90,79,78,14663,2147753252,2147424795,2148010742,2147873974,2147642569,2147047862,2148258304,2147198665,3167,4,13,58619
1369659093,5811,998.5999755859375000,49.4389801025390600,675.9271850585938000,4.1021981239318850,53.8242988586425800,53,97,87,80,79,14665,2147754121,2147424036,2148012050,2147874870,2147643885,2147054546,2148260544,2147193609,79,4,13,33675
1369662693,5808,998.3400268554688000,49.4412498474121100,676.0781860351562000,4.0972018241882320,53.8218803405761700,51,101,84,78,79,14663,2147753152,2147424566,2148008749,2147873718,2147641837,2147055433,2148258697,2147196553,470,4,13,52445
1369666293,5806,995.8900146484375000,49.3825302124023440,675.9959716796875000,4.0999221801757810,53.8291206359863300,52,99,89,78,80,14665,2147758345,2147424722,2148007259,2147875684,2147644498,2147051419,2148259081,2147197650,240,4,13,20389
1369669893,5810,998.1900024414062000,49.6370315551757800,676.4722900390625000,4.0841541290283200,53.8005485534668000,52,98,83,77,79,14662,2147753984,2147423862,2148008521,2147878418,2147644397,2147051565,2148260461,2147194221,3505,4,13,8827
1369673493,5807,1007.3300170898438000,49.6312294006347660,675.2714233398438000,4.1239070892333980,53.7890281677246100,52,99,88,80,80,14665,2147756077,2147423862,2148005449,2147876214,2147644123,2147052141,2148258395,2147195739,450,4,13,56830
1369677093,5807,1005.7000122070312000,48.9458999633789060,674.2852783203125000,4.1565318107604980,53.8721809387207000,53,96,83,77,80,14660,2147756233,2147426240,2148010925,2147874944,2147643008,2147049252,2148256521,2147197513,3360,4,13,46659
1369680693,5810,993.9500122070312000,48.5085487365722660,674.8756103515625000,4.1370029449462890,53.9378318786621100,52,100,85,79,80,14662,2147753609,2147426642,2148009024,2147875776,2147644187,2147051172,2148261065,2147195675,113,4,13,54563
1369684293,5806,990.9400024414062000,49.5796089172363300,676.1187744140625000,4.0958580970764160,53.8027992248535160,52,99,83,78,80,14664,2147755821,2147425764,2148010578,2147873993,2147646180,2147049133,2148262656,2147197970,562,4,13,31407
1369685456,5810,994.5300292968750000,49.6290588378906250,676.4030761718750000,4.0864467620849610,53.8018608093261700,52,98,85,77,80,14851,2147758811,2147425956,2148012754,2147876077,2147644873,2147050395,2148259474,2147196909,136,4,13,2202
